When you browse on this site, cookies collect data to enhance your experience and personalize the content and advertising you see.
Visit our Privacy Policy to learn more. By continuing to use the site, you agree to this use of cookies and data.
  • In Romania
  • List of Countries
  • For 7 days
  • Water Temperature
  • Satellite Maps
  • Weather Map
  • Weather Widgets
  • user-avatar
    Login

    Hourly Weather Tatarbaevo

    Today, 17 February, Sunday

    Time Temperature Precipitation Wind Pressure Humidity
    00:00 -4°C° 0.1 mm 2 mps 738 mmHg 97%
    01:00 -4°C° 0.1 mm 2 mps 738 mmHg 97%
    02:00 -4°C° 0.1 mm 2 mps 738 mmHg 98%
    03:00 -4°C° 0.1 mm 2 mps 738 mmHg 98%
    04:00 -4°C° 0 mm 2 mps 738 mmHg 98%
    05:00 -5°C° 0.1 mm 2 mps 738 mmHg 98%
    06:00 -5°C° 0.1 mm 2 mps 737 mmHg 98%
    07:00 -4°C° 0.1 mm 1 mps 737 mmHg 97%
    08:00 -4°C° 0 mm 1 mps 737 mmHg 97%
    09:00 -4°C° 0 mm 1 mps 737 mmHg 96%
    10:00 -6°C° 0 mm 1 mps 736 mmHg 94%
    11:00 -4°C° 0 mm 1 mps 736 mmHg 93%
    12:00 -5°C° 0 mm 2 mps 736 mmHg 91%
    13:00 -5°C° 0 mm 3 mps 735 mmHg 90%
    14:00 -5°C° 0 mm 3 mps 735 mmHg 90%
    15:00 -5°C° 0 mm 3 mps 734 mmHg 90%
    16:00 -5°C° 0 mm 3 mps 733 mmHg 90%
    17:00 -4°C° 0 mm 3 mps 733 mmHg 91%
    18:00 -4°C° 0 mm 4 mps 732 mmHg 91%
    19:00 -4°C° 0 mm 4 mps 732 mmHg 92%
    20:00 -5°C° 0 mm 5 mps 731 mmHg 92%
    21:00 -6°C° 0 mm 5 mps 731 mmHg 92%
    22:00 -6°C° 0 mm 5 mps 730 mmHg 91%
    23:00 -6°C° 0.1 mm 5 mps 729 mmHg 91%

    Tomorrow, 18 February, Monday

    Time Temperature Precipitation Wind Pressure Humidity
    00:00 -6°C° 0.1 mm 6 mps 728 mmHg 91%
    01:00 -6°C° 0.1 mm 6 mps 728 mmHg 91%
    02:00 -6°C° 0.3 mm 6 mps 727 mmHg 91%
    03:00 -6°C° 0.3 mm 6 mps 727 mmHg 92%
    04:00 -6°C° 0.3 mm 6 mps 726 mmHg 92%
    05:00 -6°C° 0.3 mm 6 mps 726 mmHg 92%
    06:00 -6°C° 0.3 mm 5 mps 726 mmHg 92%
    07:00 -6°C° 0.3 mm 5 mps 726 mmHg 93%
    08:00 -6°C° 0.3 mm 5 mps 726 mmHg 92%
    09:00 -6°C° 0.3 mm 5 mps 726 mmHg 92%
    10:00 -6°C° 0.3 mm 5 mps 726 mmHg 92%
    11:00 -5°C° 0.2 mm 5 mps 726 mmHg 91%
    12:00 -4°C° 0.2 mm 4 mps 726 mmHg 90%
    13:00 -3°C° 0.2 mm 4 mps 726 mmHg 90%
    14:00 -2°C° 0.2 mm 3 mps 726 mmHg 90%
    15:00 -2°C° 0.2 mm 2 mps 727 mmHg 91%
    16:00 -2°C° 0.2 mm 2 mps 727 mmHg 91%
    17:00 -3°C° 0.2 mm 2 mps 728 mmHg 92%
    18:00 -3°C° 0.2 mm 2 mps 728 mmHg 93%
    19:00 -3°C° 0.2 mm 2 mps 729 mmHg 94%
    20:00 -4°C° 0.2 mm 2 mps 729 mmHg 95%
    21:00 -4°C° 0.2 mm 2 mps 730 mmHg 95%
    22:00 -4°C° 0.2 mm 2 mps 730 mmHg 95%
    23:00 -5°C° 0.1 mm 2 mps 731 mmHg 95%

    Day after tomorrow, 19 February, Tuesday

    Time Temperature Precipitation Wind Pressure Humidity
    00:00 -6°C° 0.1 mm 3 mps 732 mmHg 95%
    01:00 -7°C° 0.1 mm 3 mps 733 mmHg 95%
    02:00 -8°C° 0.2 mm 5 mps 733 mmHg 93%
    03:00 -11°C° 0.2 mm 7 mps 734 mmHg 91%
    04:00 -12°C° 0.2 mm 8 mps 735 mmHg 88%
    05:00 -13°C° 0 mm 8 mps 736 mmHg 88%
    06:00 -15°C° 0 mm 8 mps 737 mmHg 88%
    07:00 -17°C° 0 mm 7 mps 737 mmHg 88%
    08:00 -18°C° 0 mm 7 mps 738 mmHg 87%
    09:00 -18°C° 0 mm 7 mps 739 mmHg 87%
    10:00 -19°C° 0 mm 8 mps 740 mmHg 87%
    11:00 -19°C° 0 mm 7 mps 741 mmHg 87%
    12:00 -19°C° 0 mm 7 mps 741 mmHg 88%
    13:00 -17°C° 0 mm 6 mps 742 mmHg 88%
    14:00 -17°C° 0 mm 6 mps 742 mmHg 88%
    15:00 -17°C° 0 mm 6 mps 743 mmHg 89%
    16:00 -17°C° 0 mm 5 mps 744 mmHg 89%
    17:00 -18°C° 0 mm 4 mps 744 mmHg 91%
    18:00 -19°C° 0 mm 4 mps 745 mmHg 92%
    19:00 -19°C° 0 mm 3 mps 746 mmHg 94%
    20:00 -19°C° 0 mm 2 mps 746 mmHg 94%
    21:00 -20°C° 0 mm 2 mps 746 mmHg 94%
    22:00 -18°C° 0 mm 1 mps 747 mmHg 94%
    23:00 -18°C° 0 mm 1 mps 747 mmHg 94%

    20 February, Wednesday

    Time Temperature Precipitation Wind Pressure Humidity
    00:00 -18°C° 0 mm 1 mps 747 mmHg 94%
    01:00 -18°C° 0 mm 1 mps 747 mmHg 93%
    02:00 -18°C° 0 mm 1 mps 747 mmHg 93%
    03:00 -19°C° 0 mm 1 mps 747 mmHg 93%
    04:00 -19°C° 0 mm 1 mps 748 mmHg 93%
    05:00 -21°C° 0 mm 2 mps 748 mmHg 92%
    06:00 -21°C° 0 mm 2 mps 748 mmHg 92%
    07:00 -22°C° 0 mm 3 mps 748 mmHg 92%
    08:00 -21°C° 0 mm 3 mps 748 mmHg 93%
    09:00 -20°C° 0 mm 4 mps 748 mmHg 93%
    10:00 -19°C° 0 mm 4 mps 748 mmHg 93%
    11:00 -19°C° 0 mm 5 mps 747 mmHg 93%
    12:00 -18°C° 0 mm 5 mps 747 mmHg 93%
    13:00 -17°C° 0 mm 5 mps 747 mmHg 93%
    14:00 -16°C° 0 mm 6 mps 746 mmHg 93%
    15:00 -16°C° 0 mm 6 mps 746 mmHg 93%
    16:00 -15°C° 0 mm 7 mps 746 mmHg 93%
    17:00 -15°C° 0 mm 7 mps 745 mmHg 92%
    18:00 -15°C° 0 mm 7 mps 745 mmHg 92%
    19:00 -14°C° 0 mm 7 mps 745 mmHg 91%
    20:00 -15°C° 0 mm 7 mps 745 mmHg 91%
    21:00 -15°C° 0 mm 7 mps 744 mmHg 92%
    22:00 -17°C° 0 mm 7 mps 744 mmHg 92%
    23:00 -15°C° 0.1 mm 7 mps 744 mmHg 92%

    21 February, Thursday

    Time Temperature Precipitation Wind Pressure Humidity
    00:00 -15°C° 0.1 mm 7 mps 743 mmHg 92%
    01:00 -15°C° 0.1 mm 7 mps 743 mmHg 93%
    02:00 -14°C° 0.1 mm 7 mps 743 mmHg 92%
    03:00 -13°C° 0.1 mm 7 mps 743 mmHg 92%
    04:00 -12°C° 0.1 mm 7 mps 743 mmHg 92%
    05:00 -12°C° 0.1 mm 7 mps 743 mmHg 92%
    06:00 -12°C° 0.1 mm 7 mps 743 mmHg 92%
    07:00 -11°C° 0.1 mm 7 mps 743 mmHg 92%
    08:00 -11°C° 0.2 mm 7 mps 743 mmHg 92%
    09:00 -11°C° 0.2 mm 7 mps 743 mmHg 92%
    10:00 -11°C° 0.2 mm 7 mps 743 mmHg 92%
    11:00 -9°C° 0.2 mm 7 mps 743 mmHg 92%
    12:00 -9°C° 0.2 mm 7 mps 743 mmHg 92%
    13:00 -9°C° 0.2 mm 7 mps 744 mmHg 92%
    14:00 -9°C° 0.2 mm 7 mps 744 mmHg 92%
    15:00 -9°C° 0.2 mm 6 mps 744 mmHg 92%
    16:00 -8°C° 0.2 mm 6 mps 744 mmHg 92%
    17:00 -9°C° 0.3 mm 6 mps 744 mmHg 92%
    18:00 -9°C° 0.3 mm 6 mps 744 mmHg 92%
    19:00 -9°C° 0.3 mm 6 mps 744 mmHg 92%
    20:00 -9°C° 0.3 mm 6 mps 744 mmHg 92%
    21:00 -9°C° 0.3 mm 6 mps 744 mmHg 93%
    22:00 -9°C° 0.3 mm 6 mps 744 mmHg 93%
    23:00 -9°C° 0.3 mm 6 mps 744 mmHg 93%

    22 February, Friday

    Time Temperature Precipitation Wind Pressure Humidity
    00:00 -9°C° 0.3 mm 7 mps 744 mmHg 92%
    01:00 -9°C° 0.3 mm 7 mps 744 mmHg 92%
    02:00 -8°C° 0.4 mm 7 mps 744 mmHg 92%
    03:00 -8°C° 0.4 mm 7 mps 743 mmHg 92%
    04:00 -8°C° 0.4 mm 7 mps 743 mmHg 92%
    05:00 -7°C° 0.2 mm 7 mps 743 mmHg 91%
    06:00 -7°C° 0.2 mm 7 mps 743 mmHg 91%
    07:00 -6°C° 0.2 mm 7 mps 742 mmHg 91%
    08:00 -6°C° 0.1 mm 7 mps 742 mmHg 90%
    09:00 -4°C° 0.1 mm 7 mps 742 mmHg 90%
    10:00 -4°C° 0.1 mm 7 mps 743 mmHg 89%
    11:00 -4°C° 0.2 mm 7 mps 743 mmHg 90%
    12:00 -3°C° 0.2 mm 6 mps 743 mmHg 91%
    13:00 -3°C° 0.2 mm 6 mps 743 mmHg 92%
    14:00 -3°C° 0.4 mm 6 mps 743 mmHg 92%
    15:00 -4°C° 0.4 mm 6 mps 743 mmHg 92%
    16:00 -4°C° 0.4 mm 6 mps 742 mmHg 92%
    17:00 -4°C° 0.1 mm 5 mps 743 mmHg 91%
    18:00 -5°C° 0.1 mm 5 mps 743 mmHg 91%
    19:00 -5°C° 0.1 mm 5 mps 743 mmHg 91%
    20:00 -4°C° 0.1 mm 4 mps 743 mmHg 92%
    21:00 -4°C° 0.1 mm 3 mps 742 mmHg 94%
    22:00 -4°C° 0.1 mm 2 mps 742 mmHg 95%
    23:00 -3°C° 0.3 mm 2 mps 742 mmHg 95%
    Show more